GW0581 Weather Reports


time (UTC)temp
C
wind
direction
speed
KPH
gust
KPH
rain 1hr
cm
rain 24hr
cm
rain mn
cm
humidity
%
barometer
mb
20260505090537 12 188 6.4 16.1 0.00 0.00 0.00 87 1013.2
20260505085518 12 166 4.8 16.1 0.00 0.00 0.00 87 1013.1
20260505084519 12 187 4.8 12.9 0.00 0.00 0.00 86 1013.1
20260505083519 12 203 3.2 11.3 0.00 0.00 0.00 86 1013.0
20260505082518 12 202 8.0 22.5 0.00 0.00 0.00 86 1013.0
20260505081518 13 189 6.4 17.7 0.00 0.00 0.00 86 1013.0
20260505080519 13 218 4.8 14.5 0.00 0.00 0.00 85 1012.9
20260505075518 13 196 4.8 16.1 0.00 0.00 0.00 85 1012.9
20260505074519 13 188 4.8 14.5 0.00 0.00 0.00 85 1012.8
20260505073517 13 161 4.8 16.1 0.00 0.00 0.00 84 1012.7
20260505072518 13 194 1.6 6.4 0.00 0.00 0.00 83 1012.6
20260505071517 13 198 4.8 14.5 0.00 0.00 0.00 83 1012.4
20260505070518 13 168 6.4 12.9 0.00 0.00 0.00 82 1012.4
20260505065517 14 176 6.4 12.9 0.00 0.00 0.00 82 1012.2
20260505064538 14 180 4.8 11.3 0.00 0.00 0.00 81 1012.2
20260505063518 14 201 6.4 11.3 0.00 0.00 0.00 81 1012.1
20260505062517 15 213 4.8 12.9 0.00 0.00 0.00 80 1012.0
20260505061518 15 192 3.2 12.9 0.00 0.00 0.00 79 1011.8
20260505060519 15 194 6.4 14.5 0.00 0.00 0.00 79 1011.7
20260505055538 15 190 6.4 16.1 0.00 0.00 0.00 78 1011.7
20260505054539 15 181 8.0 16.1 0.00 0.00 0.00 77 1011.7
20260505053539 16 202 4.8 16.1 0.00 0.00 0.00 76 1011.6
20260505052520 16 201 4.8 16.1 0.00 0.00 0.00 75 1011.5
20260505051519 16 209 6.4 12.9 0.00 0.00 0.00 74 1011.4
20260505050517 17 227 4.8 12.9 0.00 0.00 0.00 72 1011.2
20260505041539 19 208 4.8 11.3 0.00 0.00 0.00 66 1010.6
20260505040518 19 188 3.2 14.5 0.00 0.00 0.00 65 1010.5
20260505035519 20 253 1.6 6.4 0.00 0.00 0.00 64 1010.3
20260505034517 20 279 4.8 14.5 0.00 0.00 0.00 63 1010.0
20260505033519 20 277 4.8 16.1 0.00 0.00 0.00 61 1009.9
20260505032539 21 281 3.2 14.5 0.00 0.00 0.00 60 1009.8
20260505031538 21 255 6.4 14.5 0.00 0.00 0.00 58 1009.6
20260505030537 21 247 4.8 14.5 0.00 0.00 0.00 56 1009.5
20260505025518 22 238 4.8 12.9 0.00 0.00 0.00 55 1009.5
20260505024519 22 222 4.8 12.9 0.00 0.00 0.00 55 1009.4
20260505023517 22 238 4.8 14.5 0.00 0.00 0.00 55 1009.3
20260505022518 23 226 4.8 12.9 0.00 0.00 0.00 54 1009.4
20260505021519 23 242 4.8 11.3 0.00 0.00 0.00 54 1009.4
20260505020518 23 224 6.4 16.1 0.00 0.00 0.00 53 1009.4
20260505015518 23 188 3.2 11.3 0.00 0.00 0.00 53 1009.3
20260505014519 23 200 6.4 14.5 0.00 0.00 0.00 52 1009.3
20260505013518 24 213 4.8 11.3 0.00 0.00 0.00 51 1009.3
20260505012519 25 252 3.2 11.3 0.00 0.00 0.00 49 1009.4
20260505011518 24 282 3.2 14.5 0.00 0.00 0.00 49 1009.4
20260505010517 25 277 3.2 11.3 0.00 0.00 0.00 46 1009.4
20260505005537 25 278 1.6 6.4 0.00 0.00 0.00 45 1009.4
20260505004519 26 281 3.2 11.3 0.00 0.00 0.00 42 1009.5
20260505003518 25 228 4.8 11.3 0.00 0.00 0.00 42 1009.6
20260505002539 25 225 6.4 16.1 0.00 0.00 0.00 42 1009.5
20260505001538 25 271 3.2 11.3 0.00 0.00 0.00 42 1009.6
20260505000518 26 273 4.8 16.1 0.00 0.00 0.00 42 1009.6
20260504235517 26 190 3.2 11.3 0.00 0.00 0.00 40 1009.6
20260504234518 26 160 3.2 9.7 0.00 0.00 0.00 38 1009.7
20260504233538 26 202 3.2 16.1 0.00 0.00 0.00 38 1009.8
20260504232518 26 287 4.8 12.9 0.00 0.00 0.00 40 1009.7
20260504231519 26 254 4.8 17.7 0.00 0.00 0.00 38 1009.7
20260504230518 26 283 6.4 16.1 0.00 0.00 0.00 37 1009.7
20260504225519 26 290 6.4 17.7 0.00 0.00 0.00 37 1009.9
20260504224518 26 252 4.8 17.7 0.00 0.00 0.00 38 1010.1
20260504223519 26 302 6.4 14.5 0.00 0.00 0.00 38 1010.2
20260504222517 26 212 4.8 12.9 0.00 0.00 0.00 37 1010.3
20260504221518 26 254 1.6 11.3 0.00 0.00 0.00 37 1010.5
20260504220518 26 280 4.8 14.5 0.00 0.00 0.00 39 1010.5
20260504215517 26 291 6.4 16.1 0.00 0.00 0.00 39 1010.6
20260504214518 26 278 4.8 16.1 0.00 0.00 0.00 42 1010.6
20260504213518 26 288 4.8 17.7 0.00 0.00 0.00 42 1010.6
20260504212518 26 206 3.2 11.3 0.00 0.00 0.00 43 1010.7
20260504211517 25 247 6.4 16.1 0.00 0.00 0.00 44 1010.7
20260504210518 25 275 3.2 12.9 0.00 0.00 0.00 45 1010.8
20260504205517 25 274 3.2 16.1 0.00 0.00 0.00 46 1010.8
20260504204518 25 302 4.8 12.9 0.00 0.00 0.00 46 1010.8
20260504203519 25 244 4.8 12.9 0.00 0.00 0.00 46 1010.9
20260504202518 25 263 3.2 12.9 0.00 0.00 0.00 48 1010.8
20260504201520 25 289 4.8 14.5 0.00 0.00 0.00 47 1010.8
20260504200538 25 172 1.6 6.4 0.00 0.00 0.00 45 1010.9
20260504195539 25 202 4.8 12.9 0.00 0.00 0.00 44 1010.8
20260504194519 25 279 4.8 14.5 0.00 0.00 0.00 46 1010.9
20260504193519 24 177 4.8 11.3 0.00 0.00 0.00 46 1011.0
20260504192518 23 140 3.2 6.4 0.00 0.00 0.00 52 1011.0
20260504191519 23 141 4.8 9.7 0.00 0.00 0.00 50 1011.1
20260504190517 23 96 1.6 12.9 0.00 0.00 0.00 48 1011.2
20260504185519 23 136 1.6 9.7 0.00 0.00 0.00 49 1011.2
20260504184518 23 167 4.8 12.9 0.00 0.00 0.00 51 1011.2
20260504183538 23 119 4.8 12.9 0.00 0.00 0.00 51 1011.3
20260504182517 23 170 1.6 11.3 0.00 0.00 0.00 52 1011.3
20260504181518 22 204 4.8 9.7 0.00 0.00 0.00 52 1011.3
20260504180519 22 206 3.2 9.7 0.00 0.00 0.00 52 1011.3
20260504175518 22 273 4.8 11.3 0.00 0.00 0.00 52 1011.3
20260504174519 22 284 4.8 11.3 0.00 0.00 0.00 53 1011.4
20260504173559 21 55 4.8 12.9 0.00 0.00 0.00 55 1011.3
20260504172519 21 74 1.6 9.7 0.00 0.00 0.00 59 1011.3
20260504171518 21 0.0 0.0 0.00 0.00 0.00 61 1011.3
20260504170519 20 74 1.6 9.7 0.00 0.00 0.00 63 1011.2
20260504150517 15 0.0 0.0 0.00 0.00 0.00 83 1010.6
20260504140538 13 0.0 0.0 0.00 0.00 0.00 88 1010.3
20260504130520 12 0.0 0.0 0.00 0.00 0.00 90 1009.8
20260504110517 13 0.0 0.0 0.00 0.00 0.00 80 1009.8
20260504100519 13 0.0 0.0 0.00 0.00 0.00 77 1009.7